This demonstration page uses our WeatherBlox Daily Observations layout. Learn more.

Hourly Observations for August 7, 2020

Temp ( °F °C ) Dew Point ( °F °C ) Humidity (%) Winds ( mph kmh ) Pressure ( in mb ) Visibility ( mi km ) Precip ( " mm )
12:15 am 00:15 Partly Cloudy 64 18 64 18 100 100 SE 3 6 30.08 1019 10 16.0934 0 0
12:35 am 00:35 Partly Cloudy 64 18 64 18 100 100 E 3 6 30.08 1019 10 16.0934 0 0
12:55 am 00:55 Clear 64 18 64 18 100 100 E 3 6 30.08 1019 10 16.0934 0 0
1:15 am 01:15 Clear 64 18 64 18 100 100 E 5 7 30.07 1018 10 16.0934 0 0
1:35 am 01:35 Clear 64 18 64 18 100 100 Calm 30.07 1018 10 16.0934 0 0
1:55 am 01:55 Partly Cloudy 64 18 64 18 100 100 Calm 30.07 1018 10 16.0934 0 0
2:15 am 02:15 Partly Cloudy 64 18 64 18 100 100 Calm 30.06 1018 10 16.0934 0 0
2:35 am 02:35 Partly Cloudy 63 17 63 17 100 100 Calm 30.07 1018 10 16.0934 0 0
2:55 am 02:55 Mostly Cloudy 63 17 63 17 100 100 N 3 6 30.07 1018 10 16.0934 0 0
3:15 am 03:15 Mostly Cloudy 63 17 63 17 100 100 NNE 3 6 30.07 1018 10 16.0934 0 0
3:35 am 03:35 Partly Cloudy 63 17 63 17 100 100 Calm 30.07 1018 10 16.0934 0 0
3:55 am 03:55 Clear 63 17 63 17 100 100 N 3 6 30.08 1018 10 16.0934 0 0
4:15 am 04:15 Partly Cloudy 63 17 63 17 100 100 N 3 6 30.08 1018 10 16.0934 0 0
4:35 am 04:35 Clear 63 17 63 17 100 100 N 3 6 30.08 1018 10 16.0934 0 0
4:55 am 04:55 Clear 63 17 63 17 100 100 Calm 30.08 1018 10 16.0934 0 0
5:15 am 05:15 Mostly Cloudy 61 16 61 16 100 100 Calm 30.09 1019 10 16.0934 0 0
5:35 am 05:35 Cloudy 61 16 61 16 100 100 Calm 30.1 1019 10 16.0934 0 0
5:55 am 05:55 Cloudy 61 16 61 16 100 100 Calm 30.1 1019 10 16.0934 0 0
6:15 am 06:15 Cloudy 63 17 63 17 100 100 Calm 30.1 1019 10 16.0934 0 0
6:35 am 06:35 Partly Cloudy 63 17 63 17 100 100 Calm 30.1 1019 10 16.0934 0 0
6:55 am 06:55 Sunny 63 17 63 17 100 100 NW 3 6 30.1 1019 10 16.0934 0 0
7:15 am 07:15 Sunny 63 17 63 17 100 100 Calm 30.11 1019 10 16.0934 0 0
7:35 am 07:35 Sunny 63 17 63 17 100 100 Calm 30.11 1019 10 16.0934 0 0
7:55 am 07:55 Sunny 63 17 63 17 100 100 Calm 30.12 1020 10 16.0934 0 0
8:15 am 08:15 Sunny 63 17 63 17 100 100 Calm 30.12 1020 10 16.0934 0 0
8:35 am 08:35 Sunny 64 18 64 18 100 100 Calm 30.11 1020 10 16.0934 0 0
8:55 am 08:55 Sunny 66 19 64 18 94 94 Calm 30.12 1020 10 16.0934 0 0
9:15 am 09:15 Partly Cloudy 68 20 64 18 88 88 Calm 30.12 1020 10 16.0934 0 0
9:35 am 09:35 Mostly Cloudy 70 21 66 19 88 88 Calm 30.11 1020 10 16.0934 0 0
9:55 am 09:55 Mostly Cloudy 70 21 66 19 88 88 SSW 3 6 30.12 1020 10 16.0934 0 0
10:15 am 10:15 Cloudy 70 21 66 19 88 88 Calm 30.12 1020 10 16.0934 0.06 1.524
10:35 am 10:35 Cloudy 72 22 68 20 88 88 W 3 6 30.12 1020 10 16.0934 0.06 1.524
10:55 am 10:55 Cloudy 73 23 68 20 83 83 SW 3 6 30.11 1020 10 16.0934 0.06 1.524
11:15 am 11:15 Cloudy 72 22 68 20 88 88 Calm 30.11 1020 10 16.0934 0 0
11:35 am 11:35 Cloudy 73 23 68 20 83 83 S 7 11 30.11 1020 10 16.0934 0 0
11:55 am 11:55 Cloudy 75 24 68 20 78 78 SSW 6 9 30.11 1019 10 16.0934 0 0
12:15 pm 12:15 Cloudy 77 25 68 20 74 74 SSW 5 7 30.09 1019 10 16.0934 0 0
12:35 pm 12:35 Cloudy 77 25 68 20 74 74 SSW 5 7 30.09 1019 10 16.0934 0 0
12:55 pm 12:55 Cloudy 79 26 68 20 70 70 S 8 13 30.09 1019 10 16.0934 0 0
1:15 pm 13:15 Mostly Cloudy with Nearby Thunderstorms 79 26 68 20 70 70 SSW 7 11 30.08 1019 10 16.0934 0 0
1:35 pm 13:35 Partly Cloudy 81 27 68 20 66 66 S 8 13 30.08 1019 10 16.0934 0 0
1:55 pm 13:55 Mostly Cloudy 79 26 68 20 70 70 SW 6 9 30.08 1019 10 16.0934 0 0
2:15 pm 14:15 Mostly Cloudy 81 27 68 20 66 66 S 6 9 30.07 1018 10 16.0934 0 0
2:35 pm 14:35 Mostly Cloudy with Nearby Thunderstorms 81 27 70 21 70 70 SSW 6 9 30.07 1018 10 16.0934 0 0
2:55 pm 14:55 Mostly Cloudy 81 27 68 20 66 66 SSW 5 7 30.07 1018 10 16.0934 0 0
3:15 pm 15:15 Mostly Cloudy 81 27 70 21 70 70 WSW 5 7 30.06 1018 10 16.0934 0 0
3:35 pm 15:35 Partly Cloudy 82 28 70 21 66 66 WSW 3 6 30.06 1018 10 16.0934 0 0
3:55 pm 15:55 Partly Cloudy 81 27 70 21 70 70 WSW 3 6 30.05 1018 10 16.0934 0 0
4:15 pm 16:15 Mostly Cloudy 81 27 70 21 70 70 WSW 3 6 30.04 1017 10 16.0934 0 0
4:35 pm 16:35 Partly Cloudy 81 27 72 22 74 74 WSW 5 7 30.03 1017 10 16.0934 0 0
4:55 pm 16:55 Sunny 82 28 72 22 70 70 WSW 5 7 30.03 1017 10 16.0934 0 0
5:15 pm 17:15 Sunny 82 28 72 22 70 70 W 6 9 30.03 1017 10 16.0934 0 0
5:35 pm 17:35 Sunny 82 28 72 22 70 70 SW 7 11 30.04 1017 10 16.0934 0 0
5:55 pm 17:55 Sunny 81 27 72 22 74 74 WSW 5 7 30.04 1017 10 16.0934 0 0
6:15 pm 18:15 Sunny 81 27 72 22 74 74 W 3 6 30.04 1017 10 16.0934 0 0
6:35 pm 18:35 Sunny 79 26 72 22 79 79 Calm 30.05 1018 10 16.0934 0 0
6:55 pm 18:55 Sunny 79 26 72 22 79 79 WNW 3 6 30.05 1018 10 16.0934 0 0
7:15 pm 19:15 Sunny 79 26 72 22 79 79 WNW 3 6 30.05 1018 10 16.0934 0 0
7:35 pm 19:35 Sunny 79 26 72 22 79 79 Calm 30.06 1018 10 16.0934 0 0
7:55 pm 19:55 Sunny 79 26 72 22 79 79 Calm 30.07 1018 10 16.0934 0 0
8:15 pm 20:15 Partly Cloudy 77 25 72 22 83 83 NNE 7 11 30.07 1018 10 16.0934 0 0
8:35 pm 20:35 Partly Cloudy 73 23 70 21 89 89 NNE 10 17 30.09 1019 10 16.0934 0 0
8:55 pm 20:55 Partly Cloudy 73 23 68 20 83 83 NNE 7 11 30.09 1019 10 16.0934 0 0
9:15 pm 21:15 Partly Cloudy 72 22 68 20 88 88 NNE 5 7 30.1 1019 10 16.0934 0 0
9:35 pm 21:35 Mostly Cloudy 72 22 68 20 88 88 NNE 3 6 30.11 1020 10 16.0934 0 0
9:55 pm 21:55 Mostly Cloudy 72 22 68 20 88 88 NNE 9 15 30.12 1020 10 16.0934 0 0
10:15 pm 22:15 Mostly Cloudy 70 21 68 20 94 94 NNE 5 7 30.12 1020 10 16.0934 0 0
10:35 pm 22:35 Partly Cloudy 70 21 68 20 94 94 NE 6 9 30.13 1020 10 16.0934 0 0
10:55 pm 22:55 Partly Cloudy 70 21 68 20 94 94 NNE 5 7 30.12 1020 10 16.0934 0 0
11:15 pm 23:15 Partly Cloudy 70 21 68 20 94 94 NNE 5 7 30.13 1020 10 16.0934 0 0
11:35 pm 23:35 Mostly Cloudy 68 20 68 20 100 100 NE 3 6 30.14 1021 10 16.0934 0 0
11:55 pm 23:55 Mostly Cloudy 68 20 68 20 100 100 NE 3 6 30.14 1021 10 16.0934 0 0

Powered by AerisWeather